Location: Newark
(45.9456°N, 15.4064°E)
Time: 23:58:16
(UTC+00:00)

ISS - Visible Passes

Search period start: 27 January 2021 00:00
Search period end: 06 February 2021 00:00
Orbit: 418 x 421 km, 51.6° (Epoch: 28 January)

Date Brightness Start Highest point End Pass type
(mag) Time Alt. Az. Time Alt. Az. Time Alt. Az.
27 Jan -2.5 17:01:09 10° WNW 17:04:14 31° N 17:06:14 17° NE visible
27 Jan -0.9 18:38:26 10° WNW 18:39:13 15° NW 18:39:13 15° NW visible
28 Jan -2.5 17:51:03 10° WNW 17:53:50 31° N 17:53:50 31° N visible
29 Jan -2.5 17:03:37 10° WNW 17:06:40 30° N 17:08:28 18° NE visible
29 Jan -0.9 18:40:33 10° WNW 18:41:27 17° NW 18:41:27 17° NW visible
30 Jan -3.0 17:53:12 10° WNW 17:56:07 43° N 17:56:07 43° N visible
31 Jan -2.9 17:05:50 10° WNW 17:09:01 36° NNE 17:10:50 20° ENE visible
31 Jan -1.1 18:42:39 10° WNW 18:43:50 20° WNW 18:43:50 20° WNW visible
01 Feb -3.9 17:55:15 10° WNW 17:58:37 85° N 17:58:37 85° N visible
02 Feb -3.7 17:07:53 10° WNW 17:11:14 60° NNE 17:13:31 19° E visible
02 Feb -1.1 18:45:00 10° W 18:46:30 20° WSW 18:46:30 20° WSW visible
03 Feb -2.6 17:57:22 10° WNW 18:00:35 40° SW 18:01:32 31° S visible
04 Feb -3.3 17:09:53 10° WNW 17:13:14 63° SSW 17:16:35 10° SE visible
04 Feb -0.5 18:49:07 10° SW 18:49:28 10° SW 18:49:45 10° SW visible
05 Feb -0.9 18:00:03 10° W 18:02:15 16° SW 18:04:27 10° S visible
